レモン彗星

C/2023 H2 ( Lemmon )

English version
Home page
Updated on February 27, 2024

---------------------------------------------------------------------

・ プロフィール

発見日 2023年4月23日
発見光度 20.7等
発見者 Mt. Lemmon Survey

・ 写真集

・ 軌道要素

Epoch 2023 Sept. 13.0 TT = JDT 2460200.5
T 2023 Oct. 29.19008 TT                                 Rudenko
q   0.8944128            (2000.0)            P               Q
z  +0.0040802      Peri.  150.64918     +0.57676416     +0.60274461
 +/-0.0000023      Node   217.04463     +0.44790570     +0.33114948
e   0.9963506      Incl.  113.75410     +0.68317171     -0.72597449
>From 725 observations 2023 Mar. 26-Dec. 3, mean residual 0".8.

・ 星図

・ 光度変化

        m1 =  9.5 + 5 logΔ + 20.0 log r         [   ,-58]  (              〜2023年 9月 1日)
        m1 = 10.5 + 5 logΔ + 10.0 log r(t - 8)  [-58,   ]  (2023年 9月 1日〜              )

---------------------------------------------------------------------

軌道要素はM.P.E.C. 2023-X256に掲載されたものです。
星図はステラナビゲータ Ver.11 (アストロアーツ) で作成したものです。
光度グラフはComet for Windowsで作成したものです。

---------------------------------------------------------------------

Copyright(C) Seiichi Yoshida (comet@aerith.net). All rights reserved.